DB0WV-6 Weather Reports


time (UTC)temp
F
wind
direction
speed
knots
gust
knots
rain 1hr
in
rain 24hr
in
rain mn
in
humidity
%
barometer
mb
20260504050516 55 90 0.0 0.0 0.00 0.00 0.00 60 1013.1
20260504045515 54 90 0.0 0.0 0.00 0.00 0.00 62 1013.0
20260504044516 54 90 0.0 0.0 0.00 0.00 0.00 63 1012.9
20260504043516 53 76 0.0 2.6 0.00 0.00 0.00 64 1012.9
20260504042516 53 90 0.0 0.0 0.00 0.00 0.00 66 1012.8
20260504041536 52 90 0.0 0.0 0.00 0.00 0.00 69 1012.8
20260504040515 51 90 0.0 0.0 0.00 0.00 0.00 69 1012.9
20260504035516 52 90 0.0 0.0 0.00 0.00 0.00 68 1012.9
20260504034516 52 89 2.6 5.2 0.00 0.00 0.00 68 1012.8
20260504033515 52 82 0.9 2.6 0.00 0.00 0.00 67 1012.9
20260504032516 53 115 0.0 1.7 0.00 0.00 0.00 68 1013.1
20260504031516 53 170 1.7 3.5 0.00 0.00 0.00 68 1013.3
20260504030516 53 135 0.0 2.6 0.00 0.00 0.00 68 1013.3
20260504025515 53 90 0.0 0.0 0.00 0.00 0.00 67 1013.2
20260504024536 53 182 0.0 1.7 0.00 0.00 0.00 67 1013.3
20260504023516 53 179 0.0 0.9 0.00 0.00 0.00 65 1013.4
20260504022516 53 206 1.7 2.6 0.00 0.00 0.00 64 1013.5
20260504021516 54 223 2.6 2.6 0.00 0.00 0.00 62 1013.4
20260504020516 54 200 1.7 3.5 0.00 0.00 0.00 62 1013.3
20260504015515 54 125 0.9 3.5 0.00 0.00 0.00 59 1013.3
20260504014516 55 113 0.9 3.5 0.00 0.00 0.00 58 1013.3
20260504013536 55 105 1.7 3.5 0.00 0.00 0.00 58 1013.4
20260504012516 55 91 2.6 4.3 0.00 0.00 0.00 58 1013.2
20260504011516 55 83 1.7 3.5 0.00 0.00 0.00 58 1013.2
20260504010516 55 77 2.6 3.5 0.00 0.00 0.00 58 1013.3
20260504005513 55 81 3.5 6.1 0.00 0.00 0.00 60 1013.3
20260504004514 54 89 2.6 4.3 0.00 0.00 0.00 60 1013.4
20260504003513 54 90 0.0 0.0 0.00 0.00 0.00 62 1013.4
20260504002513 54 90 0.0 0.0 0.00 0.00 0.00 61 1013.3
20260504001514 54 90 0.0 0.0 0.00 0.00 0.00 61 1013.6
20260504000513 54 90 0.0 0.0 0.00 0.00 0.00 60 1013.7
20260503235513 54 90 0.0 0.0 0.00 0.00 0.00 60 1013.8
20260503234515 54 90 0.0 0.0 0.00 0.00 0.00 61 1013.8
20260503233513 54 90 0.0 0.0 0.00 0.00 0.00 63 1013.8
20260503232533 54 90 0.0 0.0 0.00 0.00 0.00 61 1013.8
20260503231514 54 90 0.0 0.0 0.00 0.00 0.00 61 1014.0
20260503230533 54 90 0.0 0.0 0.00 0.00 0.00 63 1013.9
20260503225513 54 90 0.0 0.0 0.00 0.00 0.00 62 1013.9
20260503224514 54 90 0.0 0.0 0.00 0.00 0.00 59 1013.9
20260503223513 55 90 0.0 0.0 0.00 0.00 0.00 60 1014.1
20260503222513 55 269 0.0 2.6 0.00 0.00 0.00 61 1014.1
20260503221513 55 255 0.0 2.6 0.00 0.00 0.00 61 1014.0
20260503220513 55 263 0.0 1.7 0.00 0.00 0.00 60 1013.9
20260503220014 56 276 0.0 2.6 0.00 0.00 0.00 60 1013.9
20260503215033 56 265 1.7 4.3 0.00 0.00 0.00 59 1013.9
20260503214013 56 255 1.7 5.2 0.00 0.00 0.00 58 1013.8
20260503213013 56 269 1.7 5.2 0.00 0.00 0.00 59 1013.6
20260503212013 56 270 1.7 6.1 0.00 0.00 0.00 58 1013.5
20260503211014 56 268 2.6 5.2 0.00 0.00 0.00 57 1013.5
20260503210014 56 255 2.6 5.2 0.00 0.00 0.00 57 1013.3
20260503205034 57 248 2.6 5.2 0.00 0.00 0.00 56 1013.3
20260503204014 57 254 2.6 7.0 0.00 0.00 0.00 57 1013.3
20260503203014 57 275 2.6 5.2 0.00 0.00 0.00 57 1013.1
20260503202014 57 278 2.6 7.8 0.00 0.00 0.00 56 1013.1
20260503201035 57 277 3.5 7.0 0.00 0.00 0.00 55 1013.0
20260503200017 56 269 3.5 7.0 0.00 0.00 0.00 55 1012.9
20260503195013 56 264 3.5 7.0 0.00 0.00 0.00 56 1012.8
20260503194014 57 272 3.5 7.0 0.00 0.00 0.00 56 1012.5
20260503193015 57 270 3.5 7.8 0.00 0.00 0.00 55 1012.5
20260503192014 58 275 4.3 8.7 0.00 0.00 0.00 53 1012.3
20260503191034 59 277 3.5 8.7 0.00 0.00 0.00 51 1012.4
20260503190014 60 284 3.5 6.1 0.00 0.00 0.00 48 1012.6
20260503185014 61 264 2.6 7.0 0.00 0.00 0.00 44 1012.7
20260503184014 61 257 3.5 7.8 0.00 0.00 0.00 42 1012.7
20260503183014 62 265 3.5 9.6 0.00 0.00 0.00 43 1012.4
20260503182014 63 272 5.2 10.4 0.00 0.00 0.00 42 1012.3
20260503181014 66 245 5.2 12.2 0.00 0.00 0.00 44 1012.4
20260503180014 67 248 2.6 8.7 0.00 0.00 0.00 46 1012.3
20260503175014 67 222 1.7 4.3 0.00 0.00 0.00 44 1012.1
20260503174014 69 255 2.6 5.2 0.00 0.00 0.00 43 1012.1
20260503173014 71 221 3.5 7.0 0.00 0.00 0.00 38 1012.3
20260503172014 71 202 2.6 5.2 0.00 0.00 0.00 36 1012.3
20260503171014 71 204 1.7 3.5 0.00 0.00 0.00 36 1012.2
20260503151014 75 229 5.2 8.7 0.00 0.00 0.00 29 1012.4
20260503131014 73 274 3.5 6.1 0.00 0.00 0.00 28 1013.2
20260503081015 67 241 4.3 7.8 0.00 0.00 0.00 46 1015.0
20260503072035 65 220 5.2 7.0 0.00 0.00 0.00 48 1014.7
20260503071015 65 225 3.5 6.1 0.00 0.00 0.00 48 1014.7